Time,TemperatureF,DewpointF,PressureIn,WindDirection,WindDirectionDegrees,WindSpeedMPH,WindSpeedGustMPH,Humidity,HourlyPrecipIn,Conditions,Clouds,dailyrainin,SoftwareType,DateUTC
2013-03-22 00:00:00,28.9,16.0,29.97,North,0,0.0,0.0,58,0.00,,,0.00,WUHU216HW,2013-03-22 04:00:00,
2013-03-22 00:05:00,28.9,16.0,29.97,North,0,0.0,0.0,58,0.00,,,0.00,WUHU216HW,2013-03-22 04:05:00,
2013-03-22 00:10:00,28.9,16.0,29.97,North,0,0.0,0.0,58,0.00,,,0.00,WUHU216HW,2013-03-22 04:10:00,
2013-03-22 00:15:00,28.9,16.0,29.97,North,0,0.0,0.0,58,0.00,,,0.00,WUHU216HW,2013-03-22 04:15:00,
2013-03-22 00:20:00,28.3,15.8,29.97,North,0,0.0,0.0,59,0.00,,,0.00,WUHU216HW,2013-03-22 04:20:00,
2013-03-22 00:25:00,28.2,15.7,29.96,North,0,0.0,0.0,59,0.00,,,0.00,WUHU216HW,2013-03-22 04:25:00,
2013-03-22 00:30:00,28.2,16.1,29.96,North,0,0.0,0.0,60,0.00,,,0.00,WUHU216HW,2013-03-22 04:30:00,
2013-03-22 00:35:00,28.2,16.1,29.96,North,0,0.0,0.0,60,0.00,,,0.00,WUHU216HW,2013-03-22 04:35:00,
2013-03-22 00:40:00,28.2,16.1,29.96,North,0,0.0,0.0,60,0.00,,,0.00,WUHU216HW,2013-03-22 04:40:00,
2013-03-22 00:45:00,28.2,16.1,29.96,North,0,0.0,0.0,60,0.00,,,0.00,WUHU216HW,2013-03-22 04:45:00,
2013-03-22 00:50:00,27.8,15.8,29.96,North,0,0.0,0.0,60,0.00,,,0.00,WUHU216HW,2013-03-22 04:50:00,
2013-03-22 00:55:00,27.4,15.8,29.96,North,0,0.0,0.0,61,0.00,,,0.00,WUHU216HW,2013-03-22 04:55:00,
2013-03-22 01:00:00,27.3,15.7,29.96,North,0,0.0,0.0,61,0.00,,,0.00,WUHU216HW,2013-03-22 05:00:00,
2013-03-22 01:05:00,27.3,16.0,29.96,North,0,0.0,0.0,62,0.00,,,0.00,WUHU216HW,2013-03-22 05:05:00,
2013-03-22 01:10:00,27.4,16.1,29.96,North,0,0.0,0.0,62,0.00,,,0.00,WUHU216HW,2013-03-22 05:10:00,
2013-03-22 01:15:00,27.4,16.1,29.96,North,0,0.0,0.0,62,0.00,,,0.00,WUHU216HW,2013-03-22 05:15:00,
2013-03-22 01:20:00,27.4,16.1,29.95,North,0,0.0,0.0,62,0.00,,,0.00,WUHU216HW,2013-03-22 05:20:00,
2013-03-22 01:25:00,27.3,16.0,29.96,North,0,0.0,0.0,62,0.00,,,0.00,WUHU216HW,2013-03-22 05:25:00,
2013-03-22 01:30:00,26.9,15.7,29.96,North,0,0.0,0.0,62,0.00,,,0.00,WUHU216HW,2013-03-22 05:30:00,
2013-03-22 01:35:00,26.7,15.5,29.96,North,0,0.0,0.0,62,0.00,,,0.00,WUHU216HW,2013-03-22 05:35:00,
2013-03-22 01:40:00,26.9,15.7,29.95,North,0,0.0,0.0,62,0.00,,,0.00,WUHU216HW,2013-03-22 05:40:00,
2013-03-22 01:45:00,26.9,15.7,29.95,North,0,0.0,0.0,62,0.00,,,0.00,WUHU216HW,2013-03-22 05:45:00,
2013-03-22 01:50:00,26.7,15.5,29.95,North,0,0.0,0.0,62,0.00,,,0.00,WUHU216HW,2013-03-22 05:50:00,
2013-03-22 01:55:00,26.7,15.5,29.95,North,0,0.0,0.0,62,0.00,,,0.00,WUHU216HW,2013-03-22 05:55:00,
2013-03-22 02:00:00,26.5,15.3,29.95,North,0,0.0,0.0,62,0.00,,,0.00,WUHU216HW,2013-03-22 06:00:00,
2013-03-22 02:05:00,26.4,15.6,29.95,North,0,0.0,0.0,63,0.00,,,0.00,WUHU216HW,2013-03-22 06:05:00,
2013-03-22 02:10:00,26.4,15.6,29.96,North,0,0.0,0.0,63,0.00,,,0.00,WUHU216HW,2013-03-22 06:10:00,
2013-03-22 02:15:00,26.2,15.4,29.95,North,0,0.0,0.0,63,0.00,,,0.00,WUHU216HW,2013-03-22 06:15:00,
2013-03-22 02:20:00,26.2,15.4,29.95,North,0,0.0,0.0,63,0.00,,,0.00,WUHU216HW,2013-03-22 06:20:00,
2013-03-22 02:25:00,26.0,15.5,29.95,North,0,0.0,0.0,64,0.00,,,0.00,WUHU216HW,2013-03-22 06:25:00,
2013-03-22 02:30:00,26.0,15.5,29.96,North,0,0.0,0.0,64,0.00,,,0.00,WUHU216HW,2013-03-22 06:30:00,
2013-03-22 02:35:00,25.8,15.4,29.96,North,0,0.0,0.0,64,0.00,,,0.00,WUHU216HW,2013-03-22 06:35:00,
2013-03-22 02:40:00,25.6,15.2,29.96,North,0,0.0,0.0,64,0.00,,,0.00,WUHU216HW,2013-03-22 06:40:00,
2013-03-22 02:45:00,25.6,15.5,29.96,North,0,0.0,0.0,65,0.00,,,0.00,WUHU216HW,2013-03-22 06:45:00,
2013-03-22 02:50:00,25.5,15.4,29.96,North,0,0.0,0.0,65,0.00,,,0.00,WUHU216HW,2013-03-22 06:50:00,
2013-03-22 02:55:00,25.3,15.2,29.96,North,0,0.0,0.0,65,0.00,,,0.00,WUHU216HW,2013-03-22 06:55:00,
2013-03-22 03:00:00,25.3,15.2,29.96,North,0,0.0,0.0,65,0.00,,,0.00,WUHU216HW,2013-03-22 07:00:00,
2013-03-22 03:05:00,25.5,15.8,29.96,North,0,0.0,0.0,66,0.00,,,0.00,WUHU216HW,2013-03-22 07:05:00,
2013-03-22 03:10:00,25.5,15.8,29.96,North,0,0.0,0.0,66,0.00,,,0.00,WUHU216HW,2013-03-22 07:10:00,
2013-03-22 03:15:00,25.3,15.2,29.96,North,0,0.0,0.0,65,0.00,,,0.00,WUHU216HW,2013-03-22 07:15:00,
2013-03-22 03:20:00,25.3,15.6,29.97,North,0,0.0,0.0,66,0.00,,,0.00,WUHU216HW,2013-03-22 07:20:00,
2013-03-22 03:25:00,25.3,15.6,29.96,North,0,0.0,0.0,66,0.00,,,0.00,WUHU216HW,2013-03-22 07:25:00,
2013-03-22 03:30:00,25.1,15.4,29.97,North,0,0.0,0.0,66,0.00,,,0.00,WUHU216HW,2013-03-22 07:30:00,
2013-03-22 03:35:00,24.9,15.2,29.96,North,0,0.0,0.0,66,0.00,,,0.00,WUHU216HW,2013-03-22 07:35:00,
2013-03-22 03:40:00,25.1,15.4,29.97,North,0,0.0,0.0,66,0.00,,,0.00,WUHU216HW,2013-03-22 07:40:00,
2013-03-22 03:45:00,25.1,15.7,29.97,North,0,0.0,0.0,67,0.00,,,0.00,WUHU216HW,2013-03-22 07:45:00,
2013-03-22 03:50:00,25.1,15.4,29.96,North,0,0.0,0.0,66,0.00,,,0.00,WUHU216HW,2013-03-22 07:50:00,
2013-03-22 03:55:00,24.9,15.5,29.97,North,0,0.0,0.0,67,0.00,,,0.00,WUHU216HW,2013-03-22 07:55:00,
2013-03-22 04:00:00,24.9,15.5,29.96,North,0,0.0,0.0,67,0.00,,,0.00,WUHU216HW,2013-03-22 08:00:00,
2013-03-22 04:05:00,24.7,15.4,29.96,North,0,0.0,0.0,67,0.00,,,0.00,WUHU216HW,2013-03-22 08:05:00,
2013-03-22 04:10:00,24.6,15.3,29.96,North,0,0.0,0.0,67,0.00,,,0.00,WUHU216HW,2013-03-22 08:10:00,
2013-03-22 04:15:00,24.6,15.3,29.96,North,0,0.0,0.0,67,0.00,,,0.00,WUHU216HW,2013-03-22 08:15:00,
2013-03-22 04:20:00,24.6,15.3,29.96,North,0,0.0,0.0,67,0.00,,,0.00,WUHU216HW,2013-03-22 08:20:00,
2013-03-22 04:25:00,24.7,15.4,29.96,North,0,0.0,0.0,67,0.00,,,0.00,WUHU216HW,2013-03-22 08:25:00,
2013-03-22 04:30:00,24.6,15.3,29.96,North,0,0.0,0.0,67,0.00,,,0.00,WUHU216HW,2013-03-22 08:30:00,
2013-03-22 04:35:00,24.2,15.2,29.96,North,0,0.0,0.0,68,0.00,,,0.00,WUHU216HW,2013-03-22 08:35:00,
2013-03-22 04:41:00,24.2,15.2,29.96,North,0,0.0,0.0,68,0.00,,,0.00,WUHU216HW,2013-03-22 08:41:00,
2013-03-22 04:46:00,24.0,15.0,29.96,North,0,0.0,0.0,68,0.00,,,0.00,WUHU216HW,2013-03-22 08:46:00,
2013-03-22 04:51:00,23.8,15.2,29.97,North,0,0.0,0.0,69,0.00,,,0.00,WUHU216HW,2013-03-22 08:51:00,
2013-03-22 04:56:00,24.0,15.4,29.97,North,0,0.0,0.0,69,0.00,,,0.00,WUHU216HW,2013-03-22 08:56:00,
2013-03-22 05:01:00,24.0,15.4,29.97,North,0,0.0,0.0,69,0.00,,,0.00,WUHU216HW,2013-03-22 09:01:00,
2013-03-22 05:06:00,23.8,14.8,29.96,North,0,0.0,0.0,68,0.00,,,0.00,WUHU216HW,2013-03-22 09:06:00,
2013-03-22 05:11:00,23.7,15.1,29.97,North,0,0.0,0.0,69,0.00,,,0.00,WUHU216HW,2013-03-22 09:11:00,
2013-03-22 05:16:00,23.5,14.5,29.97,North,0,0.0,0.0,68,0.00,,,0.00,WUHU216HW,2013-03-22 09:16:00,
2013-03-22 05:21:00,23.7,15.1,29.97,North,0,0.0,0.0,69,0.00,,,0.00,WUHU216HW,2013-03-22 09:21:00,
2013-03-22 05:26:00,23.7,14.7,29.97,North,0,0.0,0.0,68,0.00,,,0.00,WUHU216HW,2013-03-22 09:26:00,
2013-03-22 05:31:00,23.5,14.9,29.97,North,0,0.0,0.0,69,0.00,,,0.00,WUHU216HW,2013-03-22 09:31:00,
2013-03-22 05:36:00,23.5,14.9,29.97,North,0,0.0,0.0,69,0.00,,,0.00,WUHU216HW,2013-03-22 09:36:00,
2013-03-22 05:41:00,23.3,14.7,29.97,North,0,0.0,0.0,69,0.00,,,0.00,WUHU216HW,2013-03-22 09:41:00,
2013-03-22 05:46:00,23.3,14.7,29.97,North,0,0.0,0.0,69,0.00,,,0.00,WUHU216HW,2013-03-22 09:46:00,
2013-03-22 05:51:00,23.5,14.9,29.97,North,0,0.0,0.0,69,0.00,,,0.00,WUHU216HW,2013-03-22 09:51:00,
2013-03-22 05:56:00,23.3,14.7,29.97,North,0,0.0,0.0,69,0.00,,,0.00,WUHU216HW,2013-03-22 09:56:00,
2013-03-22 06:01:00,23.3,14.7,29.97,North,0,0.0,0.0,69,0.00,,,0.00,WUHU216HW,2013-03-22 10:01:00,
2013-03-22 06:06:00,23.3,14.7,29.98,North,0,0.0,0.0,69,0.00,,,0.00,WUHU216HW,2013-03-22 10:06:00,
2013-03-22 06:11:00,23.3,14.7,29.97,North,0,0.0,0.0,69,0.00,,,0.00,WUHU216HW,2013-03-22 10:11:00,
2013-03-22 06:16:00,23.1,14.5,29.97,North,0,0.0,0.0,69,0.00,,,0.00,WUHU216HW,2013-03-22 10:16:00,
2013-03-22 06:21:00,23.1,14.5,29.98,North,0,0.0,0.0,69,0.00,,,0.00,WUHU216HW,2013-03-22 10:21:00,
2013-03-22 06:26:00,22.9,14.3,29.98,North,0,0.0,0.0,69,0.00,,,0.00,WUHU216HW,2013-03-22 10:26:00,
2013-03-22 06:31:00,22.8,14.5,29.98,North,0,0.0,0.0,70,0.00,,,0.00,WUHU216HW,2013-03-22 10:31:00,
2013-03-22 06:36:00,22.9,14.6,29.98,North,0,0.0,0.0,70,0.00,,,0.00,WUHU216HW,2013-03-22 10:36:00,
2013-03-22 06:41:00,22.9,14.6,29.98,North,0,0.0,0.0,70,0.00,,,0.00,WUHU216HW,2013-03-22 10:41:00,
2013-03-22 06:46:00,23.1,14.8,29.98,North,0,0.0,0.0,70,0.00,,,0.00,WUHU216HW,2013-03-22 10:46:00,
2013-03-22 06:51:00,23.1,14.8,29.98,North,0,0.0,0.0,70,0.00,,,0.00,WUHU216HW,2013-03-22 10:51:00,
2013-03-22 06:56:00,23.1,14.8,29.98,North,0,0.0,0.0,70,0.00,,,0.00,WUHU216HW,2013-03-22 10:56:00,
2013-03-22 07:01:00,23.1,14.8,29.98,North,0,0.0,0.0,70,0.00,,,0.00,WUHU216HW,2013-03-22 11:01:00,
2013-03-22 07:06:00,22.9,14.3,29.99,North,0,0.0,0.0,69,0.00,,,0.00,WUHU216HW,2013-03-22 11:06:00,
2013-03-22 07:11:00,22.8,14.5,29.98,North,0,0.0,0.0,70,0.00,,,0.00,WUHU216HW,2013-03-22 11:11:00,
2013-03-22 07:16:00,22.4,14.1,29.99,North,0,0.0,0.0,70,0.00,,,0.00,WUHU216HW,2013-03-22 11:16:00,
2013-03-22 07:21:00,22.2,14.0,29.99,North,0,0.0,0.0,70,0.00,,,0.00,WUHU216HW,2013-03-22 11:21:00,
2013-03-22 07:26:00,22.4,14.1,29.99,North,0,0.0,0.0,70,0.00,,,0.00,WUHU216HW,2013-03-22 11:26:00,
2013-03-22 07:31:00,22.2,14.3,29.99,North,0,0.0,0.0,71,0.00,,,0.00,WUHU216HW,2013-03-22 11:31:00,
2013-03-22 07:36:00,22.4,14.5,29.99,North,0,0.0,0.0,71,0.00,,,0.00,WUHU216HW,2013-03-22 11:36:00,
2013-03-22 07:41:00,22.4,14.5,29.99,North,0,0.0,0.0,71,0.00,,,0.00,WUHU216HW,2013-03-22 11:41:00,
2013-03-22 07:46:00,22.4,14.5,29.99,North,0,0.0,0.0,71,0.00,,,0.00,WUHU216HW,2013-03-22 11:46:00,
2013-03-22 07:51:00,22.4,14.5,29.99,North,0,0.0,0.0,71,0.00,,,0.00,WUHU216HW,2013-03-22 11:51:00,
2013-03-22 07:56:00,22.4,14.5,29.99,North,0,0.0,0.0,71,0.00,,,0.00,WUHU216HW,2013-03-22 11:56:00,
2013-03-22 08:01:00,22.4,14.5,29.99,North,0,0.0,0.0,71,0.00,,,0.00,WUHU216HW,2013-03-22 12:01:00,
2013-03-22 08:06:00,22.4,14.5,30.00,North,0,0.0,0.0,71,0.00,,,0.00,WUHU216HW,2013-03-22 12:06:00,
2013-03-22 08:11:00,22.4,14.5,30.00,North,0,0.0,0.0,71,0.00,,,0.00,WUHU216HW,2013-03-22 12:11:00,
2013-03-22 08:16:00,22.2,14.6,30.00,North,0,0.0,0.0,72,0.00,,,0.00,WUHU216HW,2013-03-22 12:16:00,
2013-03-22 08:21:00,22.4,14.8,30.00,North,0,0.0,0.0,72,0.00,,,0.00,WUHU216HW,2013-03-22 12:21:00,
2013-03-22 08:26:00,22.4,14.8,30.00,North,0,0.0,0.0,72,0.00,,,0.00,WUHU216HW,2013-03-22 12:26:00,
2013-03-22 08:31:00,22.6,15.0,30.00,North,0,0.0,0.0,72,0.00,,,0.00,WUHU216HW,2013-03-22 12:31:00,
2013-03-22 08:36:00,22.8,15.2,30.00,North,0,0.0,0.0,72,0.00,,,0.00,WUHU216HW,2013-03-22 12:36:00,
2013-03-22 08:41:00,23.1,15.5,30.01,North,0,0.0,0.0,72,0.00,,,0.00,WUHU216HW,2013-03-22 12:41:00,
2013-03-22 08:46:00,23.7,16.0,30.01,North,0,0.0,0.0,72,0.00,,,0.00,WUHU216HW,2013-03-22 12:46:00,
2013-03-22 08:51:00,23.8,16.1,30.01,North,0,0.0,0.0,72,0.00,,,0.00,WUHU216HW,2013-03-22 12:51:00,
2013-03-22 08:56:00,24.2,16.5,30.01,North,0,0.0,0.0,72,0.00,,,0.00,WUHU216HW,2013-03-22 12:56:00,
2013-03-22 09:01:00,24.6,16.9,30.01,North,0,0.0,0.0,72,0.00,,,0.00,WUHU216HW,2013-03-22 13:01:00,
2013-03-22 09:06:00,25.5,17.8,30.01,North,0,0.0,0.0,72,0.00,,,0.00,WUHU216HW,2013-03-22 13:06:00,
2013-03-22 09:11:00,26.7,19.3,30.01,North,0,0.0,0.0,73,0.00,,,0.00,WUHU216HW,2013-03-22 13:11:00,
2013-03-22 09:16:00,27.4,19.6,30.01,North,0,0.0,0.0,72,0.00,,,0.00,WUHU216HW,2013-03-22 13:16:00,
2013-03-22 09:21:00,27.8,20.0,30.01,North,0,0.0,0.0,72,0.00,,,0.00,WUHU216HW,2013-03-22 13:21:00,
2013-03-22 09:26:00,28.3,20.2,30.01,North,0,0.0,0.0,71,0.00,,,0.00,WUHU216HW,2013-03-22 13:26:00,
2013-03-22 09:31:00,28.9,20.7,30.01,North,0,0.0,0.0,71,0.00,,,0.00,WUHU216HW,2013-03-22 13:31:00,
2013-03-22 09:36:00,29.4,20.9,30.02,North,0,0.0,0.0,70,0.00,,,0.00,WUHU216HW,2013-03-22 13:36:00,
2013-03-22 09:41:00,30.0,21.5,30.02,North,0,0.0,0.0,70,0.00,,,0.00,WUHU216HW,2013-03-22 13:41:00,
2013-03-22 09:47:00,30.3,21.7,30.02,North,0,0.0,0.0,70,0.00,,,0.00,WUHU216HW,2013-03-22 13:47:00,
2013-03-22 09:52:00,30.7,21.8,30.02,North,0,0.0,0.0,69,0.00,,,0.00,WUHU216HW,2013-03-22 13:52:00,
2013-03-22 09:58:00,31.0,21.7,30.01,North,0,0.0,0.0,68,0.00,,,0.00,WUHU216HW,2013-03-22 13:58:00,
2013-03-22 10:03:00,31.4,21.4,30.01,North,0,0.0,0.0,66,0.00,,,0.00,WUHU216HW,2013-03-22 14:03:00,
2013-03-22 10:08:00,31.6,21.2,30.01,North,0,0.0,0.0,65,0.00,,,0.00,WUHU216HW,2013-03-22 14:08:00,
2013-03-22 10:13:00,31.8,21.4,30.01,North,0,0.0,0.0,65,0.00,,,0.00,WUHU216HW,2013-03-22 14:13:00,
2013-03-22 10:18:00,31.9,21.2,30.01,North,0,0.0,0.0,64,0.00,,,0.00,WUHU216HW,2013-03-22 14:18:00,
2013-03-22 10:23:00,32.5,21.7,30.01,North,0,0.0,0.0,64,0.00,,,0.00,WUHU216HW,2013-03-22 14:23:00,
2013-03-22 10:28:00,32.8,21.3,30.01,North,0,0.0,0.0,62,0.00,,,0.00,WUHU216HW,2013-03-22 14:28:00,
2013-03-22 10:33:00,33.0,21.5,30.01,North,0,0.0,0.0,62,0.00,,,0.00,WUHU216HW,2013-03-22 14:33:00,
2013-03-22 10:38:00,33.6,20.8,30.01,North,0,0.0,0.0,59,0.00,,,0.00,WUHU216HW,2013-03-22 14:38:00,
2013-03-22 10:43:00,33.9,21.5,30.01,North,0,0.0,0.0,60,0.00,,,0.00,WUHU216HW,2013-03-22 14:43:00,
2013-03-22 10:48:00,34.3,21.9,30.01,North,0,0.0,0.0,60,0.00,,,0.00,WUHU216HW,2013-03-22 14:48:00,
2013-03-22 10:53:00,34.6,22.2,30.01,North,0,0.0,0.0,60,0.00,,,0.00,WUHU216HW,2013-03-22 14:53:00,
2013-03-22 10:58:00,35.4,22.9,30.01,North,0,0.0,0.0,60,0.00,,,0.00,WUHU216HW,2013-03-22 14:58:00,
2013-03-22 11:03:00,35.7,22.4,30.00,North,0,0.0,0.0,58,0.00,,,0.00,WUHU216HW,2013-03-22 15:03:00,
2013-03-22 11:08:00,35.7,22.4,30.00,North,0,0.0,0.0,58,0.00,,,0.00,WUHU216HW,2013-03-22 15:08:00,
2013-03-22 11:13:00,36.1,21.9,30.00,North,0,0.0,0.0,56,0.00,,,0.00,WUHU216HW,2013-03-22 15:13:00,
2013-03-22 11:18:00,36.1,19.2,30.00,North,0,0.0,0.0,50,0.00,,,0.00,WUHU216HW,2013-03-22 15:18:00,
2013-03-22 11:23:00,36.1,20.6,30.00,North,0,0.0,0.0,53,0.00,,,0.00,WUHU216HW,2013-03-22 15:23:00,
2013-03-22 11:28:00,36.3,18.9,30.00,North,0,0.0,0.0,49,0.00,,,0.00,WUHU216HW,2013-03-22 15:28:00,
2013-03-22 11:33:00,36.4,18.5,30.00,North,0,0.0,0.0,48,0.00,,,0.00,WUHU216HW,2013-03-22 15:33:00,
2013-03-22 11:38:00,36.3,16.8,30.00,North,0,0.0,0.0,45,0.00,,,0.00,WUHU216HW,2013-03-22 15:38:00,
2013-03-22 11:43:00,36.6,18.2,30.00,North,0,0.0,0.0,47,0.00,,,0.00,WUHU216HW,2013-03-22 15:43:00,
2013-03-22 11:48:00,37.0,19.0,30.00,North,0,0.0,0.0,48,0.00,,,0.00,WUHU216HW,2013-03-22 15:48:00,
2013-03-22 11:53:00,37.5,20.0,29.99,North,0,0.0,0.0,49,0.00,,,0.00,WUHU216HW,2013-03-22 15:53:00,
2013-03-22 11:58:00,37.9,18.8,29.99,North,0,0.0,0.0,46,0.00,,,0.00,WUHU216HW,2013-03-22 15:58:00,
2013-03-22 12:03:00,38.1,19.5,29.99,North,0,0.0,0.0,47,0.00,,,0.00,WUHU216HW,2013-03-22 16:03:00,
2013-03-22 12:08:00,39.0,19.8,30.00,North,0,0.0,0.0,46,0.00,,,0.00,WUHU216HW,2013-03-22 16:08:00,
2013-03-22 12:13:00,39.0,19.3,29.99,North,0,0.0,0.0,45,0.00,,,0.00,WUHU216HW,2013-03-22 16:13:00,
2013-03-22 12:18:00,39.0,18.8,30.00,North,0,0.0,0.0,44,0.00,,,0.00,WUHU216HW,2013-03-22 16:18:00,
2013-03-22 12:23:00,39.3,18.5,30.00,North,0,0.0,0.0,43,0.00,,,0.00,WUHU216HW,2013-03-22 16:23:00,
2013-03-22 12:28:00,39.5,19.2,30.00,North,0,0.0,0.0,44,0.00,,,0.00,WUHU216HW,2013-03-22 16:28:00,
2013-03-22 12:33:00,40.0,19.7,29.99,North,0,0.0,0.0,44,0.00,,,0.00,WUHU216HW,2013-03-22 16:33:00,
2013-03-22 12:38:00,40.4,20.1,30.00,North,0,0.0,0.0,44,0.00,,,0.00,WUHU216HW,2013-03-22 16:38:00,
2013-03-22 12:43:00,40.2,18.8,29.99,North,0,0.0,0.0,42,0.00,,,0.00,WUHU216HW,2013-03-22 16:43:00,
2013-03-22 12:48:00,40.4,20.1,29.99,North,0,0.0,0.0,44,0.00,,,0.00,WUHU216HW,2013-03-22 16:48:00,
2013-03-22 12:53:00,40.6,20.2,29.99,North,0,0.0,0.0,44,0.00,,,0.00,WUHU216HW,2013-03-22 16:53:00,
2013-03-22 12:58:00,40.6,18.0,29.99,North,0,0.0,0.0,40,0.00,,,0.00,WUHU216HW,2013-03-22 16:58:00,
2013-03-22 13:03:00,40.4,18.9,29.98,North,0,0.0,0.0,42,0.00,,,0.00,WUHU216HW,2013-03-22 17:03:00,
2013-03-22 13:08:00,40.4,18.9,29.98,North,0,0.0,0.0,42,0.00,,,0.00,WUHU216HW,2013-03-22 17:08:00,
2013-03-22 13:13:00,40.6,18.0,29.99,North,0,0.0,0.0,40,0.00,,,0.00,WUHU216HW,2013-03-22 17:13:00,
2013-03-22 13:18:00,40.4,17.2,29.98,North,0,0.0,0.0,39,0.00,,,0.00,WUHU216HW,2013-03-22 17:18:00,
2013-03-22 13:23:00,40.9,20.0,29.98,North,0,0.0,0.0,43,0.00,,,0.00,WUHU216HW,2013-03-22 17:23:00,
2013-03-22 13:28:00,41.8,20.8,29.98,North,0,0.0,0.0,43,0.00,,,0.00,WUHU216HW,2013-03-22 17:28:00,
2013-03-22 13:33:00,42.2,20.6,29.97,North,0,0.0,0.0,42,0.00,,,0.00,WUHU216HW,2013-03-22 17:33:00,
2013-03-22 13:38:00,42.6,21.5,29.98,North,0,0.0,0.0,43,0.00,,,0.00,WUHU216HW,2013-03-22 17:38:00,
2013-03-22 13:43:00,42.9,20.0,29.97,North,0,0.0,0.0,40,0.00,,,0.00,WUHU216HW,2013-03-22 17:43:00,
2013-03-22 13:48:00,42.6,19.2,29.97,North,0,0.0,0.0,39,0.00,,,0.00,WUHU216HW,2013-03-22 17:48:00,
2013-03-22 13:53:00,42.6,19.2,29.97,North,0,0.0,0.0,39,0.00,,,0.00,WUHU216HW,2013-03-22 17:53:00,
2013-03-22 13:58:00,43.3,20.4,29.97,North,0,0.0,0.0,40,0.00,,,0.00,WUHU216HW,2013-03-22 17:58:00,
2013-03-22 14:03:00,42.7,18.6,29.97,North,0,0.0,0.0,38,0.00,,,0.00,WUHU216HW,2013-03-22 18:03:00,
2013-03-22 14:08:00,42.4,19.0,29.97,North,0,0.0,0.0,39,0.00,,,0.00,WUHU216HW,2013-03-22 18:08:00,
2013-03-22 14:13:00,42.6,19.2,29.96,North,0,0.0,0.0,39,0.00,,,0.00,WUHU216HW,2013-03-22 18:13:00,
2013-03-22 14:18:00,43.3,19.8,29.96,North,0,0.0,0.0,39,0.00,,,0.00,WUHU216HW,2013-03-22 18:18:00,
2013-03-22 14:23:00,43.3,19.8,29.96,North,0,0.0,0.0,39,0.00,,,0.00,WUHU216HW,2013-03-22 18:23:00,
2013-03-22 14:28:00,43.3,20.4,29.96,North,0,0.0,0.0,40,0.00,,,0.00,WUHU216HW,2013-03-22 18:28:00,
2013-03-22 14:33:00,44.0,21.6,29.96,North,0,0.0,0.0,41,0.00,,,0.00,WUHU216HW,2013-03-22 18:33:00,
2013-03-22 14:38:00,44.0,19.8,29.95,North,0,0.0,0.0,38,0.00,,,0.00,WUHU216HW,2013-03-22 18:38:00,
2013-03-22 14:43:00,43.5,18.1,29.95,North,0,0.0,0.0,36,0.00,,,0.00,WUHU216HW,2013-03-22 18:43:00,
2013-03-22 14:48:00,43.6,20.1,29.95,North,0,0.0,0.0,39,0.00,,,0.00,WUHU216HW,2013-03-22 18:48:00,
2013-03-22 14:53:00,43.8,19.6,29.94,North,0,0.0,0.0,38,0.00,,,0.00,WUHU216HW,2013-03-22 18:53:00,
2013-03-22 14:58:00,44.2,20.6,29.94,North,0,0.0,0.0,39,0.00,,,0.00,WUHU216HW,2013-03-22 18:58:00,
2013-03-22 15:03:00,44.4,20.8,29.94,North,0,0.0,0.0,39,0.00,,,0.00,WUHU216HW,2013-03-22 19:03:00,
2013-03-22 15:08:00,44.2,20.0,29.94,North,0,0.0,0.0,38,0.00,,,0.00,WUHU216HW,2013-03-22 19:08:00,
2013-03-22 15:13:00,44.0,19.8,29.94,North,0,0.0,0.0,38,0.00,,,0.00,WUHU216HW,2013-03-22 19:13:00,
2013-03-22 15:18:00,43.6,19.4,29.94,North,0,0.0,0.0,38,0.00,,,0.00,WUHU216HW,2013-03-22 19:18:00,
2013-03-22 15:23:00,43.8,19.6,29.94,North,0,0.0,0.0,38,0.00,,,0.00,WUHU216HW,2013-03-22 19:23:00,
2013-03-22 15:28:00,44.5,20.9,29.93,North,0,0.0,0.0,39,0.00,,,0.00,WUHU216HW,2013-03-22 19:28:00,
2013-03-22 15:33:00,44.7,19.8,29.93,North,0,0.0,0.0,37,0.00,,,0.00,WUHU216HW,2013-03-22 19:33:00,
2013-03-22 15:38:00,45.3,21.0,29.93,North,0,0.0,0.0,38,0.00,,,0.00,WUHU216HW,2013-03-22 19:38:00,
2013-03-22 15:43:00,45.4,20.4,29.93,North,0,0.0,0.0,37,0.00,,,0.00,WUHU216HW,2013-03-22 19:43:00,
2013-03-22 15:48:00,45.6,20.6,29.93,North,0,0.0,0.0,37,0.01,,,0.01,WUHU216HW,2013-03-22 19:48:00,
2013-03-22 15:53:00,45.4,19.8,29.93,North,0,0.0,0.0,36,0.02,,,0.02,WUHU216HW,2013-03-22 19:53:00,
2013-03-22 15:58:00,44.9,20.0,29.93,North,0,0.0,0.0,37,0.03,,,0.03,WUHU216HW,2013-03-22 19:58:00,
2013-03-22 16:03:00,44.7,19.1,29.93,North,0,0.0,0.0,36,0.03,,,0.03,WUHU216HW,2013-03-22 20:03:00,
2013-03-22 16:08:00,45.1,20.1,29.93,North,0,0.0,0.0,37,0.03,,,0.03,WUHU216HW,2013-03-22 20:08:00,
2013-03-22 16:13:00,45.3,20.3,29.92,North,0,0.0,0.0,37,0.03,,,0.03,WUHU216HW,2013-03-22 20:13:00,
2013-03-22 16:18:00,45.8,20.1,29.92,North,0,0.0,0.0,36,0.03,,,0.03,WUHU216HW,2013-03-22 20:18:00,
2013-03-22 16:23:00,45.3,19.0,29.92,North,0,0.0,0.0,35,0.03,,,0.03,WUHU216HW,2013-03-22 20:23:00,
2013-03-22 16:28:00,45.1,20.1,29.92,North,0,0.0,0.0,37,0.03,,,0.03,WUHU216HW,2013-03-22 20:28:00,
2013-03-22 16:33:00,45.3,20.3,29.92,North,0,0.0,0.0,37,0.03,,,0.03,WUHU216HW,2013-03-22 20:33:00,
2013-03-22 16:38:00,45.4,19.8,29.92,North,0,0.0,0.0,36,0.03,,,0.03,WUHU216HW,2013-03-22 20:38:00,
2013-03-22 16:43:00,45.3,19.7,29.91,North,0,0.0,0.0,36,0.03,,,0.03,WUHU216HW,2013-03-22 20:43:00,
2013-03-22 16:48:00,45.4,20.4,29.91,North,0,0.0,0.0,37,0.02,,,0.03,WUHU216HW,2013-03-22 20:48:00,
2013-03-22 16:53:00,45.6,20.6,29.91,North,0,0.0,0.0,37,0.01,,,0.03,WUHU216HW,2013-03-22 20:53:00,
2013-03-22 16:58:00,45.4,19.8,29.91,North,0,0.0,0.0,36,0.00,,,0.03,WUHU216HW,2013-03-22 20:58:00,
2013-03-22 17:03:00,45.4,19.8,29.91,North,0,0.0,0.0,36,0.00,,,0.03,WUHU216HW,2013-03-22 21:03:00,
2013-03-22 17:08:00,45.4,20.4,29.91,North,0,0.0,0.0,37,0.00,,,0.03,WUHU216HW,2013-03-22 21:08:00,
2013-03-22 17:13:00,45.4,20.4,29.91,North,0,0.0,0.0,37,0.00,,,0.03,WUHU216HW,2013-03-22 21:13:00,
2013-03-22 17:18:00,45.3,19.0,29.91,North,0,0.0,0.0,35,0.00,,,0.03,WUHU216HW,2013-03-22 21:18:00,
2013-03-22 17:23:00,44.9,20.0,29.91,North,0,0.0,0.0,37,0.00,,,0.03,WUHU216HW,2013-03-22 21:23:00,
2013-03-22 17:28:00,45.3,21.0,29.91,North,0,0.0,0.0,38,0.00,,,0.03,WUHU216HW,2013-03-22 21:28:00,
2013-03-22 17:33:00,45.4,21.0,29.91,North,0,0.0,0.0,38,0.00,,,0.03,WUHU216HW,2013-03-22 21:33:00,
2013-03-22 17:38:00,45.6,20.6,29.91,North,0,0.0,0.0,37,0.01,,,0.04,WUHU216HW,2013-03-22 21:38:00,
2013-03-22 17:43:00,45.4,20.4,29.91,North,0,0.0,0.0,37,0.01,,,0.04,WUHU216HW,2013-03-22 21:43:00,
2013-03-22 17:49:00,45.3,19.7,29.91,North,0,0.0,0.0,36,0.01,,,0.04,WUHU216HW,2013-03-22 21:49:00,
2013-03-22 17:54:00,45.1,20.1,29.92,North,0,0.0,0.0,37,0.01,,,0.04,WUHU216HW,2013-03-22 21:54:00,
2013-03-22 17:59:00,45.1,20.8,29.92,North,0,0.0,0.0,38,0.01,,,0.04,WUHU216HW,2013-03-22 21:59:00,
2013-03-22 18:04:00,45.3,21.0,29.92,North,0,0.0,0.0,38,0.01,,,0.04,WUHU216HW,2013-03-22 22:04:00,
2013-03-22 18:09:00,45.3,21.0,29.92,North,0,0.0,0.0,38,0.01,,,0.04,WUHU216HW,2013-03-22 22:09:00,
2013-03-22 18:14:00,45.3,21.6,29.92,North,0,0.0,0.0,39,0.01,,,0.04,WUHU216HW,2013-03-22 22:14:00,
2013-03-22 18:19:00,45.3,21.0,29.92,North,0,0.0,0.0,38,0.01,,,0.04,WUHU216HW,2013-03-22 22:19:00,
2013-03-22 18:24:00,45.1,20.8,29.92,North,0,0.0,0.0,38,0.01,,,0.04,WUHU216HW,2013-03-22 22:24:00,
2013-03-22 18:29:00,45.1,20.8,29.92,North,0,0.0,0.0,38,0.01,,,0.04,WUHU216HW,2013-03-22 22:29:00,
2013-03-22 18:34:00,44.9,21.2,29.93,North,0,0.0,0.0,39,0.06,,,0.09,WUHU216HW,2013-03-22 22:34:00,
2013-03-22 18:39:00,44.7,21.0,29.93,North,0,0.0,0.0,39,0.05,,,0.09,WUHU216HW,2013-03-22 22:39:00,
2013-03-22 18:44:00,44.7,21.0,29.93,North,0,0.0,0.0,39,0.05,,,0.09,WUHU216HW,2013-03-22 22:44:00,
2013-03-22 18:49:00,44.7,21.0,29.93,North,0,0.0,0.0,39,0.05,,,0.09,WUHU216HW,2013-03-22 22:49:00,
2013-03-22 18:54:00,44.7,21.0,29.93,North,0,0.0,0.0,39,0.05,,,0.09,WUHU216HW,2013-03-22 22:54:00,
2013-03-22 18:59:00,44.5,20.9,29.93,North,0,0.0,0.0,39,0.05,,,0.09,WUHU216HW,2013-03-22 22:59:00,
2013-03-22 19:04:00,44.4,20.8,29.93,North,0,0.0,0.0,39,0.05,,,0.09,WUHU216HW,2013-03-22 23:04:00,
2013-03-22 19:09:00,44.4,20.8,29.93,North,0,0.0,0.0,39,0.05,,,0.09,WUHU216HW,2013-03-22 23:09:00,
2013-03-22 19:14:00,44.4,20.8,29.93,North,0,0.0,0.0,39,0.05,,,0.09,WUHU216HW,2013-03-22 23:14:00,
2013-03-22 19:19:00,44.4,20.8,29.93,North,0,0.0,0.0,39,0.05,,,0.09,WUHU216HW,2013-03-22 23:19:00,
2013-03-22 19:24:00,44.2,20.6,29.93,North,0,0.0,0.0,39,0.05,,,0.09,WUHU216HW,2013-03-22 23:24:00,
2013-03-22 19:29:00,44.0,21.0,29.94,North,0,0.0,0.0,40,0.05,,,0.09,WUHU216HW,2013-03-22 23:29:00,
2013-03-22 19:34:00,43.8,19.6,29.94,North,0,0.0,0.0,38,0.00,,,0.09,WUHU216HW,2013-03-22 23:34:00,
2013-03-22 19:39:00,43.6,20.1,29.94,North,0,0.0,0.0,39,0.00,,,0.09,WUHU216HW,2013-03-22 23:39:00,
2013-03-22 19:44:00,43.6,20.1,29.94,North,0,0.0,0.0,39,0.00,,,0.09,WUHU216HW,2013-03-22 23:44:00,
2013-03-22 19:49:00,43.6,20.1,29.94,North,0,0.0,0.0,39,0.00,,,0.09,WUHU216HW,2013-03-22 23:49:00,
2013-03-22 19:54:00,43.6,20.1,29.93,North,0,0.0,0.0,39,0.00,,,0.09,WUHU216HW,2013-03-22 23:54:00,
2013-03-22 19:59:00,43.5,20.0,29.94,North,0,0.0,0.0,39,0.00,,,0.09,WUHU216HW,2013-03-22 23:59:00,
2013-03-22 20:04:00,43.5,20.6,29.94,North,0,0.0,0.0,40,0.00,,,0.09,WUHU216HW,2013-03-23 00:04:00,
2013-03-22 20:09:00,43.5,20.6,29.94,North,0,0.0,0.0,40,0.00,,,0.09,WUHU216HW,2013-03-23 00:09:00,
2013-03-22 20:14:00,43.3,20.4,29.94,North,0,0.0,0.0,40,0.00,,,0.09,WUHU216HW,2013-03-23 00:14:00,
2013-03-22 20:19:00,43.3,20.4,29.94,North,0,0.0,0.0,40,0.00,,,0.09,WUHU216HW,2013-03-23 00:19:00,
2013-03-22 20:24:00,43.3,20.4,29.94,North,0,0.0,0.0,40,0.00,,,0.09,WUHU216HW,2013-03-23 00:24:00,
2013-03-22 20:29:00,43.3,20.4,29.94,North,0,0.0,0.0,40,0.00,,,0.09,WUHU216HW,2013-03-23 00:29:00,
2013-03-22 20:34:00,43.3,20.4,29.94,North,0,0.0,0.0,40,0.00,,,0.09,WUHU216HW,2013-03-23 00:34:00,
2013-03-22 20:39:00,43.1,20.2,29.94,North,0,0.0,0.0,40,0.00,,,0.09,WUHU216HW,2013-03-23 00:39:00,
2013-03-22 20:44:00,43.1,20.2,29.94,North,0,0.0,0.0,40,0.00,,,0.09,WUHU216HW,2013-03-23 00:44:00,
2013-03-22 20:49:00,43.1,20.2,29.95,North,0,0.0,0.0,40,0.00,,,0.09,WUHU216HW,2013-03-23 00:49:00,
2013-03-22 20:54:00,42.9,20.6,29.95,North,0,0.0,0.0,41,0.00,,,0.09,WUHU216HW,2013-03-23 00:54:00,
2013-03-22 20:59:00,42.7,20.4,29.95,North,0,0.0,0.0,41,0.00,,,0.09,WUHU216HW,2013-03-23 00:59:00,
2013-03-22 21:04:00,42.6,20.9,29.95,North,0,0.0,0.0,42,0.00,,,0.09,WUHU216HW,2013-03-23 01:04:00,
2013-03-22 21:09:00,42.6,20.9,29.95,North,0,0.0,0.0,42,0.00,,,0.09,WUHU216HW,2013-03-23 01:09:00,
2013-03-22 21:14:00,42.6,20.9,29.95,North,0,0.0,0.0,42,0.00,,,0.09,WUHU216HW,2013-03-23 01:14:00,
2013-03-22 21:19:00,42.4,20.7,29.94,North,0,0.0,0.0,42,0.00,,,0.09,WUHU216HW,2013-03-23 01:19:00,
2013-03-22 21:24:00,42.4,20.7,29.95,North,0,0.0,0.0,42,0.00,,,0.09,WUHU216HW,2013-03-23 01:24:00,
2013-03-22 21:29:00,42.2,21.1,29.94,North,0,0.0,0.0,43,0.00,,,0.09,WUHU216HW,2013-03-23 01:29:00,
2013-03-22 21:34:00,42.2,21.1,29.94,North,0,0.0,0.0,43,0.00,,,0.09,WUHU216HW,2013-03-23 01:34:00,
2013-03-22 21:39:00,42.2,21.1,29.94,North,0,0.0,0.0,43,0.00,,,0.09,WUHU216HW,2013-03-23 01:39:00,
2013-03-22 21:44:00,42.2,21.1,29.94,North,0,0.0,0.0,43,0.00,,,0.09,WUHU216HW,2013-03-23 01:44:00,
2013-03-22 21:49:00,42.0,21.0,29.94,North,0,0.0,0.0,43,0.00,,,0.09,WUHU216HW,2013-03-23 01:49:00,
2013-03-22 21:54:00,42.0,21.0,29.94,North,0,0.0,0.0,43,0.00,,,0.09,WUHU216HW,2013-03-23 01:54:00,
2013-03-22 21:59:00,42.0,21.0,29.94,North,0,0.0,0.0,43,0.00,,,0.09,WUHU216HW,2013-03-23 01:59:00,
2013-03-22 22:04:00,41.8,20.8,29.94,North,0,0.0,0.0,43,0.00,,,0.09,WUHU216HW,2013-03-23 02:04:00,
2013-03-22 22:09:00,41.8,20.8,29.95,North,0,0.0,0.0,43,0.00,,,0.09,WUHU216HW,2013-03-23 02:09:00,
2013-03-22 22:14:00,41.8,20.8,29.95,North,0,0.0,0.0,43,0.00,,,0.09,WUHU216HW,2013-03-23 02:14:00,
2013-03-22 22:19:00,41.7,20.7,29.95,North,0,0.0,0.0,43,0.00,,,0.09,WUHU216HW,2013-03-23 02:19:00,
2013-03-22 22:24:00,41.7,21.2,29.95,North,0,0.0,0.0,44,0.00,,,0.09,WUHU216HW,2013-03-23 02:24:00,
2013-03-22 22:29:00,41.7,21.2,29.95,North,0,0.0,0.0,44,0.00,,,0.09,WUHU216HW,2013-03-23 02:29:00,
2013-03-22 22:34:00,41.7,21.2,29.95,North,0,0.0,0.0,44,0.00,,,0.09,WUHU216HW,2013-03-23 02:34:00,
2013-03-22 22:39:00,41.8,21.3,29.95,North,0,0.0,0.0,44,0.00,,,0.09,WUHU216HW,2013-03-23 02:39:00,
2013-03-22 22:44:00,41.7,21.2,29.96,North,0,0.0,0.0,44,0.00,,,0.09,WUHU216HW,2013-03-23 02:44:00,
2013-03-22 22:49:00,41.7,21.8,29.96,North,0,0.0,0.0,45,0.00,,,0.09,WUHU216HW,2013-03-23 02:49:00,
2013-03-22 22:54:00,41.7,21.8,29.96,North,0,0.0,0.0,45,0.00,,,0.09,WUHU216HW,2013-03-23 02:54:00,
2013-03-22 22:59:00,41.5,21.6,29.96,North,0,0.0,0.0,45,0.00,,,0.09,WUHU216HW,2013-03-23 02:59:00,
2013-03-22 23:04:00,41.5,21.6,29.95,North,0,0.0,0.0,45,0.00,,,0.09,WUHU216HW,2013-03-23 03:04:00,
2013-03-22 23:09:00,41.3,21.4,29.96,North,0,0.0,0.0,45,0.00,,,0.09,WUHU216HW,2013-03-23 03:09:00,
2013-03-22 23:14:00,41.3,21.4,29.95,North,0,0.0,0.0,45,0.00,,,0.09,WUHU216HW,2013-03-23 03:14:00,
2013-03-22 23:19:00,41.1,21.8,29.95,North,0,0.0,0.0,46,0.00,,,0.09,WUHU216HW,2013-03-23 03:19:00,
2013-03-22 23:24:00,41.3,22.0,29.95,North,0,0.0,0.0,46,0.00,,,0.09,WUHU216HW,2013-03-23 03:24:00,
2013-03-22 23:29:00,41.1,21.8,29.95,North,0,0.0,0.0,46,0.00,,,0.09,WUHU216HW,2013-03-23 03:29:00,
2013-03-22 23:34:00,41.1,21.8,29.95,North,0,0.0,0.0,46,0.00,,,0.09,WUHU216HW,2013-03-23 03:34:00,
2013-03-22 23:39:00,41.1,21.8,29.95,North,0,0.0,0.0,46,0.00,,,0.09,WUHU216HW,2013-03-23 03:39:00,
2013-03-22 23:44:00,40.9,21.6,29.95,North,0,0.0,0.0,46,0.00,,,0.09,WUHU216HW,2013-03-23 03:44:00,
2013-03-22 23:49:00,40.9,21.6,29.95,North,0,0.0,0.0,46,0.00,,,0.09,WUHU216HW,2013-03-23 03:49:00,
2013-03-22 23:54:00,40.8,21.5,29.95,North,0,0.0,0.0,46,0.00,,,0.09,WUHU216HW,2013-03-23 03:54:00,
2013-03-22 23:59:00,40.8,21.5,29.94,North,0,0.0,0.0,46,0.00,,,0.09,WUHU216HW,2013-03-23 03:59:00,